KJ5FA-10 Weather Reports


time (UTC)temp
F
wind
direction
speed
knots
gust
knots
rain 1hr
in
rain 24hr
in
rain mn
in
humidity
%
barometer
mb
20260906163940 98 323 1.7 1.7 0.00 0.00 0.00 43 1014.3
20260906160939 96 239 1.7 1.7 0.00 0.00 0.00 47 1014.3
20260906153940 92 354 0.9 2.6 0.00 0.00 0.00 55 1014.5
20260906150940 89 352 0.9 2.6 0.00 0.00 0.00 58 1014.6
20260906140939 84 8 0.9 1.7 0.00 0.00 0.00 70 1014.8
20260906135438 82 329 0.9 1.7 0.00 0.00 0.00 71 1014.9
20260906133938 81 321 1.7 1.7 0.00 0.00 0.00 75 1014.9
20260906132438 79 356 0.9 0.9 0.00 0.00 0.00 79 1015.2
20260906130939 78 8 0.9 1.7 0.00 0.00 0.00 83 1014.8
20260906125438 76 43 0.9 1.7 0.00 0.00 0.00 87 1015.0
20260906123939 75 9 0.9 0.9 0.00 0.00 0.00 89 1014.7
20260906122439 75 22 1.7 1.7 0.00 0.00 0.00 89 1014.7
20260906120939 75 0 0.0 0.9 0.00 0.00 0.00 89 1014.3
20260906115438 75 84 0.9 0.9 0.00 0.00 0.00 88 1014.4
20260906112440 76 333 1.7 1.7 0.00 0.00 0.00 87 1013.8
20260906110939 76 55 0.9 1.7 0.00 0.00 0.00 86 1013.8
20260906105438 75 334 0.9 1.7 0.00 0.00 0.00 87 1013.5
20260906103938 76 32 0.9 1.7 0.00 0.00 0.00 87 1013.6
20260906102438 76 20 1.7 2.6 0.00 0.00 0.00 86 1013.4
20260906100938 76 141 0.9 1.7 0.00 0.00 0.00 86 1013.6
20260906095440 76 327 1.7 2.6 0.00 0.00 0.00 86 1013.1
20260906093939 76 8 1.7 1.7 0.00 0.00 0.00 85 1013.1
20260906092439 77 0 0.0 0.9 0.00 0.00 0.00 84 1013.0
20260906090938 77 147 0.9 0.9 0.00 0.00 0.00 83 1012.8
20260906085438 78 11 0.9 2.6 0.00 0.00 0.00 82 1013.2
20260906083939 78 262 3.5 3.5 0.00 0.00 0.00 82 1012.7
20260906082438 78 14 0.9 1.7 0.00 0.00 0.00 81 1012.6
20260906080940 79 350 2.6 3.5 0.00 0.00 0.00 80 1012.6
20260906075440 79 22 1.7 2.6 0.00 0.00 0.00 79 1012.7
20260906073940 80 276 0.9 0.9 0.00 0.00 0.00 77 1012.7
20260906072441 80 360 1.7 2.6 0.00 0.00 0.00 78 1012.4
20260906071039 80 321 2.6 2.6 0.00 0.00 0.00 80 1012.9
20260906065432 79 328 0.9 0.9 0.00 0.00 0.00 82 1012.9
20260906063933 80 0 0.0 0.9 0.00 0.00 0.00 82 1013.0
20260906060932 80 0 0.0 0.9 0.00 0.00 0.00 82 1013.3
20260906055433 80 0 0.0 0.9 0.00 0.00 0.00 82 1013.0
20260906053932 81 0 0.0 0.0 0.00 0.00 0.00 80 1013.3
20260906052433 81 0 0.0 0.0 0.00 0.00 0.00 78 1013.1
20260906050932 82 0 0.0 0.9 0.00 0.00 0.00 77 1013.0
20260906045432 82 0 0.0 0.0 0.00 0.00 0.00 74 1013.0
20260906043933 82 0 0.0 0.9 0.00 0.00 0.00 72 1012.8
20260906042434 83 0 0.0 0.9 0.00 0.00 0.00 71 1012.6
20260906040933 83 350 0.9 0.9 0.00 0.00 0.00 71 1012.8
20260906035434 84 352 0.9 0.9 0.00 0.00 0.00 69 1012.7
20260906033933 84 4 0.9 0.9 0.00 0.00 0.00 70 1012.7
20260906032432 84 0 0.0 0.0 0.00 0.00 0.00 70 1012.9
20260906030933 85 0 0.0 0.0 0.00 0.00 0.00 68 1013.0
20260906025432 85 323 0.9 0.9 0.00 0.00 0.00 67 1012.8
20260906023934 86 325 0.9 0.9 0.00 0.00 0.00 67 1012.8
20260906022434 86 0 0.0 0.0 0.00 0.00 0.00 66 1012.8
20260906020933 87 0 0.0 0.9 0.00 0.00 0.00 64 1012.5
20260906015434 87 336 0.9 0.9 0.00 0.00 0.00 63 1012.4
20260906013933 89 0 0.0 0.9 0.00 0.00 0.00 61 1012.2
20260906012433 89 330 0.9 0.9 0.00 0.00 0.00 55 1012.1
20260906010933 91 339 0.9 0.9 0.00 0.00 0.00 54 1011.9
20260906005434 92 0 0.0 0.9 0.00 0.00 0.00 51 1011.7
20260906003932 93 0 0.0 0.0 0.00 0.00 0.00 48 1011.3
20260906002434 95 0 0.0 0.9 0.00 0.00 0.00 45 1011.6
20260905235434 96 0 0.0 0.0 0.00 0.00 0.00 42 1011.4
20260905232432 97 348 0.9 1.7 0.00 0.00 0.00 40 1011.1
20260905220934 101 0 0.0 1.7 0.00 0.00 0.00 37 1011.1
20260905213933 101 83 1.7 1.7 0.00 0.00 0.00 36 1011.2
20260905210934 102 327 2.6 2.6 0.00 0.00 0.00 33 1011.3
20260905203934 102 272 2.6 2.6 0.00 0.00 0.00 35 1011.9
20260905202433 101 0 0.0 0.9 0.00 0.00 0.00 36 1012.2
20260905195432 103 69 2.6 2.6 0.00 0.00 0.00 35 1012.7
20260905193934 101 0 0.0 2.6 0.00 0.00 0.00 38 1012.9
20260905192434 102 0 0.0 2.6 0.00 0.00 0.00 35 1013.1
20260905183934 100 0 0.0 0.9 0.00 0.00 0.00 38 1013.6
20260905180934 100 59 0.9 0.9 0.00 0.00 0.00 38 1013.8
20260905175433 100 0 0.0 0.9 0.00 0.00 0.00 38 1014.1
20260905172434 99 0 0.0 1.7 0.00 0.00 0.00 40 1014.6
20260905170934 96 326 2.6 3.5 0.00 0.00 0.00 44 1014.7
20260905165434 98 34 0.9 1.7 0.00 0.00 0.00 43 1014.8